This demonstration page uses our WeatherBlox Daily Observations layout. Learn more.

Left ArrowRight Arrow

Hourly Observations for September 8, 2016

Temp ( °F °C ) Dew Point ( °F °C ) Humidity (%) Winds ( mph kmh ) Pressure ( in mb ) Visibility ( mi km ) Precip ( " mm )
12:38 am 00:38 Mostly Cloudy with Thunderstorms 81 27 72 22 74 74 W 17 28 29.88 1012 8 13 0.00 0.00
12:49 am 00:49 Cloudy with Strong Thunderstorms 81 27 72 22 74 74 SW 10 17 29.85 1011 3 5 0.10 2.54
12:53 am 00:53 Cloudy with Thunderstorms 82 27.8 71 21.7 69 69 SSW 15 24 29.86 1011 6 10 0.10 2.54
1:53 am 01:53 Cloudy with Thunderstorms 78 25.6 72 22.2 82 82 S 12 19 29.86 1011 10 16 0.02 0.51
2:38 am 02:38 Mostly Cloudy 79 26 73 23 84 84 NNE 8 13 29.85 1011 10 16 0.00 0.00
2:53 am 02:53 Cloudy 78 25.6 73 22.8 85 85 NNE 8 13 29.86 1011 10 16 0.00 0.00
3:53 am 03:53 Mostly Cloudy 77 25 72 22.2 85 85 SSE 7 11 29.85 1011 10 16 0.00 0.00
4:53 am 04:53 Cloudy 77 25 72 22.2 85 85 ESE 7 11 29.85 1011 10 16 0.00 0.00
5:22 am 05:22 Cloudy with Thunderstorms 77 25 72 22.2 85 85 SE 6 9 29.85 1011 10 16 0.00 0.00
5:46 am 05:46 Cloudy with Strong Thunderstorms 75 24 73 23 94 94 S 8 13 29.85 1011 2 3 0.00 0.00
5:53 am 05:53 Cloudy with Thunderstorms 75 23.9 73 22.8 94 94 S 13 20 29.86 1011 4 6 0.11 2.79
6:53 am 06:53 Cloudy with Thunderstorms 74 23.3 72 22.2 94 94 S 15 24 29.90 1013 7 11 0.09 2.29
7:53 am 07:53 Cloudy with Thunderstorms 72 22.2 70 21.1 94 94 E 9 15 29.86 1011 7 11 0.14 3.56
8:51 am 08:51 Cloudy 73 23 72 22 94 94 SSE 9 15 29.88 1012 10 16 0.00 0.03
8:53 am 08:53 Cloudy 73 22.8 71 21.7 94 94 SSE 9 15 29.88 1012 10 16 0.00 0.03
9:17 am 09:17 Cloudy with Thunderstorms 73 22.8 71 21.7 94 94 SSE 6 9 29.88 1012 10 16 0.01 0.25
9:53 am 09:53 Cloudy with Thunderstorms 75 23.9 73 22.8 94 94 ESE 5 7 29.90 1013 10 16 0.01 0.25
10:09 am 10:09 Cloudy with Strong Thunderstorms 75 23.9 73 22.8 94 94 E 5 7 29.88 1012 2 3 0.05 1.27
10:16 am 10:16 Cloudy with Thunderstorms 75 24 73 23 94 94 ESE 8 13 29.88 1012 5 8 0.00 0.00
10:53 am 10:53 Mostly Cloudy 77 25 73 22.8 88 88 ESE 10 17 29.91 1013 10 16 0.10 2.54
11:53 am 11:53 Partly Cloudy 80 26.7 74 23.3 82 82 ESE 14 22 29.90 1012 10 16 0.00 0.00
12:53 pm 12:53 Mostly Cloudy 83 28.3 73 22.8 72 72 SE 15 24 29.87 1012 10 16 0.00 0.00
1:53 pm 13:53 Mostly Cloudy 85 29.4 74 23.3 70 70 SE 14 22 29.86 1011 10 16 0.00 0.00
2:53 pm 14:53 Mostly Cloudy 86 30 74 23.3 67 67 SSE 15 24 29.83 1010 10 16 0.00 0.00
3:53 pm 15:53 Mostly Cloudy 85 29.4 75 23.9 72 72 ESE 14 22 29.82 1010 10 16 0.00 0.00
4:53 pm 16:53 Mostly Cloudy 84 28.9 74 23.3 72 72 E 17 28 29.80 1009 10 16 0.00 0.00
5:26 pm 17:26 Mostly Cloudy with Thunderstorms 82 28 75 24 79 79 E 14 22 29.74 1007 5 8 0.00 0.00
5:53 pm 17:53 Mostly Cloudy with Thunderstorms 80 26.7 76 24.4 87 87 ENE 12 19 29.80 1009 5 8 0.09 2.29
6:01 pm 18:01 Mostly Cloudy 80 26.7 76 24.4 87 87 ENE 13 20 29.74 1007 10 16 0.00 0.00
6:53 pm 18:53 Mostly Cloudy with Light Rain 79 26.1 75 23.9 88 88 ESE 12 19 29.80 1009 6 10 0.03 0.76
7:04 pm 19:04 Cloudy with Light Rain 79 26 73 23 84 84 E 14 22 29.77 1008 N/A 0.00 0.00
7:07 pm 19:07 Cloudy with Thunderstorms 77 25 73 22.8 88 88 ESE 15 24 29.77 1008 2 3 0.23 5.84
7:32 pm 19:32 Mostly Cloudy with Thunderstorms 75 24 72 22 89 89 E 13 20 29.77 1008 1 2 0.00 0.00
7:40 pm 19:40 Mostly Cloudy with Strong Thunderstorms 73 23 70 21 89 89 ESE 9 15 29.80 1009 1 2 0.00 0.00
7:53 pm 19:53 Mostly Cloudy with Strong Thunderstorms 72 22.2 70 21.1 94 94 SW 10 17 29.84 1011 1 2 1.11 28.19
8:17 pm 20:17 Mostly Cloudy with Strong Thunderstorms 72 22.2 70 21.1 94 94 ESE 16 26 29.77 1008 3 5 0.45 11.43
8:28 pm 20:28 Mostly Cloudy with Thunderstorms 72 22.2 70 21.1 94 94 ESE 15 24 29.80 1009 10 16 0.46 11.68
8:48 pm 20:48 Mostly Cloudy 72 22 70 21 94 94 E 10 17 29.77 1008 10 16 0.47 11.94
8:53 pm 20:53 Mostly Cloudy with Thunderstorms 72 22 70 21 94 94 SE 10 17 29.77 1008 10 16 0.00 0.00
9:06 pm 21:06 Mostly Cloudy with Light Rain 73 22.8 69 20.6 87 87 ESE 15 24 29.77 1008 10 16 0.00 0.03
9:39 pm 21:39 Mostly Cloudy with Thunderstorms 73 22.8 69 20.6 87 87 E 7 11 29.83 1010 10 16 0.00 0.03
9:53 pm 21:53 Mostly Cloudy with Thunderstorms 73 22.8 70 21.1 90 90 VRB 3 6 29.84 1011 10 16 0.00 0.03
10:16 pm 22:16 Mostly Cloudy with Thunderstorms 72 22 70 21 94 94 N 7 11 29.83 1010 3 4 0.00 0.00
10:23 pm 22:23 Mostly Cloudy with Strong Thunderstorms 72 22.2 70 21.1 94 94 NNE 6 9 29.83 1010 2 3 0.22 5.59
10:29 pm 22:29 Mostly Cloudy with Strong Thunderstorms 71 21.7 70 21.1 96 96 NNE 6 9 29.83 1010 3 4 0.28 7.11
10:37 pm 22:37 Mostly Cloudy with Thunderstorms 72 22.2 70 21.1 94 94 NNE 6 9 29.83 1010 6 10 0.31 7.87
10:53 pm 22:53 Mostly Cloudy with Thunderstorms 72 22.2 71 21.7 97 97 NW 13 20 29.85 1011 10 16 0.31 7.87
11:12 pm 23:12 Cloudy with Strong Thunderstorms 72 22 72 22 100 100 WNW 13 20 29.85 1011 4 6 0.00 0.00
11:23 pm 23:23 Cloudy with Strong Thunderstorms 71 21.7 70 21.1 96 96 S 22 35 29.83 1010 2 3 0.23 5.84
11:38 pm 23:38 Cloudy with Thunderstorms 72 22 70 21 94 94 SSE 21 33 29.83 1010 5 8 0.00 0.00
11:53 pm 23:53 Cloudy with Thunderstorms 71 21.7 68 20 90 90 SSE 13 20 29.84 1010 4 6 0.62 15.75

Powered by AerisWeather